Terug naar catalogus

STARLINK-4100

ActiefCommunicatieVLEO
NORAD 53144·PAYLOAD·🇺🇸 United States

Gelanceerd Jul 17, 2022 vanaf Cape Canaveral Space Force Station

Loading…

Volgende Passages (komende 24 uur)

TLE

VersSource: CelesTrak SupGP

Epoch: Sep 14, 2026, 20:58 UTC

1 53144C 22083N   26257.87409722 -.00007156  00000+0 -21713-3 0  2577
2 53144  53.1594  30.3069 0001172  78.0265  79.7364 15.33553648    16

Volg STARLINK-4100 in realtime met AllMySat

Download on the App Store